GW1765 Weather Reports


time (UTC)temp
C
wind
direction
speed
KPH
gust
KPH
rain 1hr
cm
rain 24hr
cm
rain mn
cm
humidity
%
barometer
mb
20260510123027 12 160 19.3 27.4 0.00 0.05 0.00 90 1009.5
20260510122018 12 176 22.5 33.8 0.00 0.05 0.00 89 1009.4
20260510121115 12 172 20.9 29.0 0.00 0.05 0.00 87 1009.1
20260510120112 12 180 22.5 29.0 0.00 0.05 0.00 83 1008.9
20260510115108 12 176 22.5 29.0 0.00 0.05 0.05 83 1008.9
20260510114107 12 180 29.0 37.0 0.00 0.05 0.05 82 1008.8
20260510113102 12 184 25.7 33.8 0.00 0.05 0.05 81 1008.7
20260510112059 12 180 24.1 32.2 0.00 0.05 0.05 81 1008.6
20260510111057 12 206 29.0 38.6 0.00 0.05 0.05 82 1008.6
20260510110112 12 208 30.6 41.8 0.00 0.05 0.05 85 1008.7
20260510105048 12 194 25.7 33.8 0.00 0.05 0.05 87 1008.7
20260510104105 12 184 27.4 40.2 0.00 0.05 0.05 87 1008.5
20260510103042 12 180 22.5 27.4 0.00 0.05 0.05 86 1008.5
20260510102037 12 196 22.5 33.8 0.00 0.05 0.05 86 1008.5
20260510101034 11 184 25.7 33.8 0.00 0.05 0.05 86 1008.5
20260510100031 11 176 24.1 32.2 0.00 0.05 0.05 87 1008.3
20260510095029 12 184 25.7 35.4 0.00 0.05 0.05 89 1008.2
20260510094104 12 185 29.0 38.6 0.00 0.05 0.05 89 1008.1
20260510093022 12 215 29.0 37.0 0.00 0.05 0.05 92 1008.0
20260510092016 12 207 22.5 41.8 0.00 0.05 0.05 93 1007.9
20260510091114 12 195 22.5 30.6 0.00 0.05 0.05 94 1007.7
20260510090110 12 210 24.1 35.4 0.00 0.05 0.05 92 1007.4
20260510085107 12 208 24.1 37.0 0.00 0.05 0.05 91 1007.3
20260510084102 12 212 22.5 33.8 0.00 0.05 0.05 93 1007.2
20260510083059 12 233 24.1 33.8 0.00 0.05 0.05 92 1007.0
20260510082026 12 229 24.1 33.8 0.00 0.05 0.05 92 1006.8
20260510081044 12 183 25.7 41.8 0.00 0.05 0.05 92 1006.8
20260510080019 12 189 20.9 29.0 0.00 0.05 0.05 93 1006.7
20260510075115 12 192 20.9 29.0 0.00 0.05 0.05 95 1006.6
20260510074111 12 221 22.5 33.8 0.00 0.05 0.05 93 1006.3
20260510073108 12 196 19.3 29.0 0.00 0.05 0.05 92 1006.3
20260510072106 12 202 20.9 27.4 0.00 0.05 0.05 92 1006.3
20260510071101 12 180 17.7 22.5 0.00 0.05 0.05 92 1006.0
20260510070059 12 212 19.3 29.0 0.00 0.05 0.05 92 1005.9
20260510065055 13 203 20.9 30.6 0.00 0.05 0.05 91 1005.8
20260510064112 13 197 19.3 25.7 0.00 0.05 0.05 91 1005.7
20260510063047 13 184 22.5 27.4 0.00 0.05 0.05 90 1005.5
20260510062104 13 188 22.5 30.6 0.00 0.05 0.05 90 1005.3
20260510061040 13 241 14.5 17.7 0.00 0.05 0.05 89 1005.3
20260510060038 13 184 14.5 19.3 0.00 0.05 0.05 87 1005.2
20260510055032 13 211 16.1 22.5 0.00 0.05 0.05 86 1005.1
20260510054030 13 237 17.7 24.1 0.00 0.05 0.05 84 1004.9
20260510053048 13 250 14.5 24.1 0.00 0.05 0.05 83 1004.8
20260510052022 14 210 12.9 17.7 0.00 0.05 0.05 81 1004.6
20260510051020 14 200 14.5 19.3 0.00 0.05 0.05 80 1004.7
20260510050115 15 217 20.9 29.0 0.00 0.05 0.05 79 1004.6
20260510045114 16 218 25.7 37.0 0.00 0.05 0.05 80 1004.7
20260510044150 16 207 19.3 27.4 0.00 0.05 0.05 80 1004.5
20260510043107 16 222 16.1 24.1 0.00 0.05 0.05 81 1004.5
20260510042103 16 210 16.1 24.1 0.00 0.05 0.05 83 1004.6
20260510041059 16 216 19.3 25.7 0.00 0.05 0.05 85 1004.6
20260510040055 15 216 20.9 30.6 0.00 0.05 0.05 84 1004.6
20260510035113 15 224 22.5 35.4 0.00 0.05 0.05 83 1004.5
20260510034047 15 208 20.9 29.0 0.00 0.05 0.05 82 1004.5
20260510033104 15 209 25.7 41.8 0.00 0.05 0.05 80 1004.4
20260510032041 16 205 24.1 41.8 0.00 0.05 0.05 79 1004.3
20260510031059 16 213 22.5 37.0 0.00 0.05 0.05 77 1004.4
20260510030033 16 239 24.1 30.6 0.00 0.05 0.05 77 1004.4
20260510025111 16 230 27.4 38.6 0.00 0.05 0.05 74 1004.4
20260510024028 17 192 29.0 43.5 0.00 0.05 0.05 72 1004.2
20260510023045 17 206 32.2 45.1 0.00 0.05 0.05 73 1004.3
20260510022019 17 216 32.2 43.5 0.00 0.05 0.05 74 1004.2
20260510021017 16 232 30.6 40.2 0.00 0.05 0.05 78 1004.2
20260510020114 17 212 27.4 37.0 0.00 0.05 0.05 76 1004.1
20260510015109 16 203 25.7 37.0 0.00 0.05 0.05 79 1004.1
20260510014106 16 229 30.6 41.8 0.00 0.05 0.05 78 1004.2
20260510013103 16 228 25.7 41.8 0.00 0.05 0.05 78 1004.2
20260510012059 17 203 27.4 37.0 0.00 0.05 0.05 77 1004.1
20260510011054 17 207 25.7 40.2 0.00 0.05 0.05 79 1004.1
20260510010051 16 229 24.1 37.0 0.00 0.05 0.05 81 1004.1
20260510005047 16 207 27.4 37.0 0.00 0.05 0.05 82 1004.2
20260510004046 16 221 27.4 43.5 0.00 0.05 0.05 82 1004.2
20260510003042 16 216 24.1 43.5 0.00 0.05 0.05 81 1004.4
20260510002058 16 217 20.9 32.2 0.00 0.05 0.05 82 1004.2
20260510001033 16 232 19.3 25.7 0.00 0.05 0.05 81 1004.3
20260510000030 16 217 19.3 29.0 0.00 0.05 0.05 81 1004.4
20260509235048 16 205 17.7 25.7 0.00 0.05 0.05 81 1004.6
20260509234046 16 230 19.3 35.4 0.00 0.05 0.05 78 1004.6
20260509233020 16 251 22.5 33.8 0.00 0.05 0.05 77 1004.5
20260509232016 16 212 19.3 29.0 0.00 0.05 0.05 77 1004.5
20260509231113 17 236 20.9 33.8 0.00 0.05 0.05 79 1004.5
20260509230153 17 204 19.3 29.0 0.00 0.05 0.05 82 1004.7
20260509225108 15 226 14.5 24.1 0.00 0.05 0.05 83 1004.8
20260509223100 16 221 20.9 29.0 0.00 0.05 0.05 84 1004.7
20260509222118 16 222 22.5 32.2 0.00 0.10 0.05 90 1004.8
20260509221052 16 230 25.7 38.6 0.00 0.10 0.05 94 1004.7
20260509220048 15 243 20.9 33.8 0.00 0.10 0.05 95 1004.7
20260509215045 15 215 12.9 25.7 0.00 0.13 0.05 97 1004.8
20260509214041 15 213 14.5 20.9 0.00 0.13 0.05 99 1004.7
20260509213038 14 201 16.1 22.5 0.00 0.13 0.05 99 1004.8
20260509212034 14 220 17.7 27.4 0.00 0.13 0.05 99 1004.7
20260509211053 14 217 9.7 12.9 0.00 0.13 0.05 99 1004.7
20260509210027 13 246 11.3 17.7 0.00 0.13 0.05 99 1004.8
20260509205044 13 213 12.9 24.1 0.00 0.13 0.05 98 1004.7
20260509204023 13 225 11.3 16.1 0.00 0.13 0.05 98 1004.5
20260509203017 12 221 9.7 16.1 0.00 0.13 0.05 98 1004.5
20260509202135 12 213 6.4 14.5 0.00 0.13 0.05 97 1004.4
20260509201110 12 180 3.2 6.4 0.00 0.13 0.05 99 1004.2
20260509200108 12 180 4.8 9.7 0.00 0.13 0.05 99 1004.0
20260509195105 12 232 8.0 12.9 0.00 0.13 0.05 99 1004.0
20260509194102 12 229 12.9 22.5 0.00 0.13 0.05 99 1003.9
20260509193056 12 227 11.3 24.1 0.00 0.13 0.05 99 1003.8
20260509192053 12 180 3.2 6.4 0.00 0.13 0.05 99 1003.5
20260509191052 12 180 6.4 11.3 0.00 0.13 0.05 99 1003.6
20260509190046 12 220 3.2 6.4 0.00 0.13 0.05 99 1003.5
20260509185042 12 225 3.2 6.4 0.00 0.13 0.05 98 1003.4
20260509184040 11 207 4.8 8.0 0.00 0.13 0.05 98 1003.5
20260509183035 11 215 4.8 9.7 0.00 0.13 0.05 98 1003.5
20260509182032 12 203 9.7 16.1 0.00 0.13 0.05 98 1003.5
20260509181028 12 201 9.7 12.9 0.00 0.13 0.05 98 1003.5
20260509180026 12 214 11.3 14.5 0.00 0.15 0.05 98 1003.4
20260509175022 12 262 12.9 17.7 0.00 0.15 0.05 98 1003.3
20260509174017 12 222 9.7 16.1 0.00 0.15 0.05 98 1003.3
20260509173135 11 220 4.8 14.5 0.00 0.15 0.05 97 1003.2
20260509172111 11 225 4.8 9.7 0.00 0.15 0.05 98 1003.2
20260509171109 11 228 9.7 17.7 0.00 0.15 0.05 97 1003.2
20260509170106 11 242 4.8 12.9 0.00 0.15 0.05 97 1003.1
20260509165101 11 251 4.8 8.0 0.00 0.15 0.05 97 1003.1
20260509164057 11 222 4.8 6.4 0.00 0.15 0.05 97 1003.1
20260509163114 11 194 3.2 6.4 0.00 0.15 0.05 97 1003.0
20260509162115 11 188 4.8 11.3 0.00 0.15 0.05 97 1003.2
20260509161046 11 232 6.4 11.3 0.00 0.15 0.05 97 1003.2
20260509160042 11 248 1.6 8.0 0.00 0.15 0.05 97 1003.2
20260509155041 11 226 4.8 9.7 0.05 0.15 0.05 97 1003.2
20260509154036 11 214 8.0 17.7 0.05 0.15 0.05 97 1003.2
20260509153032 11 236 16.1 25.7 0.05 0.15 0.05 97 1003.5
20260509152028 11 199 6.4 19.3 0.05 0.15 0.05 97 1003.5
20260509151025 12 231 8.0 12.9 0.05 0.15 0.05 97 1003.5
20260509150021 11 234 8.0 24.1 0.05 0.15 0.05 97 1003.5
20260509145018 11 232 0.0 3.2 0.00 0.10 0.00 97 1003.6
20260509144114 12 221 3.2 6.4 0.00 0.10 0.00 97 1003.6
20260509143153 12 233 4.8 8.0 0.00 0.10 0.00 97 1003.8
20260509142108 12 236 4.8 11.3 0.00 0.10 0.00 96 1003.8
20260509141104 12 237 3.2 6.4 0.00 0.10 0.00 96 1003.8
20260509140122 12 279 1.6 4.8 0.00 0.10 0.00 96 1003.9
20260509135120 11 291 3.2 6.4 0.00 0.10 0.00 95 1003.8
20260509134054 11 305 3.2 6.4 0.00 0.10 0.00 94 1003.7
20260509133050 12 270 4.8 6.4 0.00 0.10 0.00 94 1003.7
20260509132046 11 280 4.8 8.0 0.00 0.10 0.00 93 1003.8
20260509131042 11 261 3.2 6.4 0.00 0.10 0.00 92 1003.9
20260509130040 11 142 1.6 4.8 0.00 0.10 0.00 92 1003.8
20260509125036 11 213 4.8 8.0 0.00 0.10 0.00 92 1003.7
20260509124032 11 229 6.4 12.9 0.00 0.10 0.00 91 1003.8